Volver al catálogo

STRELA 3

ActivoMilitarPO
NORAD 37153·PAYLOAD·🇷🇺 Russia

Lanzado Sep 8, 2010 desde Plesetsk Cosmodrome

Loading…

Próximos Pases (próximas 24 horas)

TLE

ActualizadoSource: Space-Track

Época: Sep 14, 2026, 13:41 UTC

1 37153U 10043B   26257.57019412 -.00000037  00000-0 -34980-3 0  9997
2 37153  82.4617  22.7216 0006802 245.5108 114.5262 12.40793679725452

Sigue STRELA 3 en tiempo real con AllMySat

Download on the App Store